SL-8 DEB, 1634

Orbit data source: Space-Track

SL-8 DEB, 1634 is space debris in LEO originally from a launch on Mon, 15 Mar 1965 UTC launched from the Tyuratam Missile And Space Complex (TTMTR). Debris objects in space refer to the collection of defunct objects orbiting the Earth. Examples of debris include non-operational satellites, rocket bodies, and fragments generated from explosions, collisions, or faulty payload assembly.

Loading next visibility...
SL-8 DEB details
Identifier
1634, 1965-020ED
Orbit
LEO
Last TLE update1 day ago
Origin
Flag of CISRVSN (CIS)
ManufacturerUnknown
MissionSpacecraft
Bus & MotorUnknown
MassUnknown
Launch date (UTC)
1965-03-15 (60 years ago)
Launch vehicleUnknown
Launch site
Tyuratam Missile And Space Complex (TTMTR)
Object type
Payload
Rocket body
Debris
Shape & HBRUnknown
Radar Cross SectionSmall (<0.1 m²)

Expand to show TLE details & history

TLE from 1 day ago
0 SL-8 DEB
1 01634U 65020ED  25035.30162861  .00000139  00000-0  42230-3 0  9996
2 01634  56.1556 339.5427 0853828 130.0418 237.8632 12.48284121700302
Epoch: 2025-02-04T07:14Z
Definitive object data (Epoch: 2025-02-04T07:14:20.711Z)
Latitude-0.00002°
Longitude96.24752°
Altitude1,867.596 km
Speed6.778 km/s
True Right ascension22h 38m 10s
True Declination0° 00' 00"
Sunlit
Object was in daylight at TLE epoch
Visualization TLE readout
Latitude28.99682°
Longitude114.00566°
Altitude1,490.816 km
Speed7.114 km/s
Apparent Right ascension02h 46m 57s
Apparent Declination-2° 43' 06"
Sunlit
Object is in daylight
Visualization observer readout
Local Sidereal Time20:06:15
Azimuth85.533° E
Elevation-9.539°
Doppler factor1
Orbital elements
Apogee altitude2,141.711 km
Perigee altitude801.265 km
Semi-major axis7,849.625 km
Eccentricity0.0853828
Inclination56.1556°
RAAN339.5427°
Arg. of periapsis130.0418°
True anomaly230.04826°
Mean anomaly237.8632°
Eccentric anomaly233.90995°
Mean motion3.12083 °/min
BSTAR0.0004223
Orbital period115.35 mins
Loading maneuver chart data...
Loading historical data...
Loading historical data...
Loading historical data...
Loading historical data...
Loading historical data...
Loading historical data...
Loading historical data...

SL-8 DEB Visibility forecast

Observer location: undefined°, undefined

Span
Click to sort rows by Start time (UTC) header in descending order
Start Az.
Max El. time (UTC)
Max El. Az.
Max El.
End time (UTC)
End Az.
7 mins2025-02-05 19:52:11.118Z142.594° SSE2025-02-05 19:56:11.118Z117.851° SE13.627°2025-02-05 19:59:11.118Z96.601° ESE
15 mins2025-02-05 21:48:11.118Z205.775° SW2025-02-05 21:56:11.118Z126.692° SE41.779°2025-02-05 22:03:11.118Z51.434° ENE
12 mins2025-02-05 23:50:11.118Z262.858° W2025-02-05 23:56:11.118Z317.592° NNW32.604°2025-02-06 00:02:11.118Z32.699° NE
7 mins2025-02-06 01:55:11.118Z317.537° NNW2025-02-06 01:58:11.118Z347.316° N17.526°2025-02-06 02:02:11.118Z32.006° NE
7 mins2025-02-06 03:57:11.118Z335.268° NNW2025-02-06 04:01:11.118Z27.522° NE22.122°2025-02-06 04:04:11.118Z68.206° E
9 mins2025-02-06 05:57:11.118Z312.727° NW2025-02-06 06:01:11.118Z274.78° WNW44.386°2025-02-06 06:06:11.118Z140.359° SSE
|